Simultaneous Nadir Overpasses (SNOs) Predictions

Prediction of SNOs between AURA and NPP Satellite Orbit:

Table of predicted SNOs for the next 14.0 days since TLE Epoch: 12/5/2020
Index Date (AURA) Time (AURA) Lat,Lon (AURA) SZA (AURA ) Date (NPP) Time (NPP) Lat,Lon (NPP) SZA (NPP ) Distance(km) Time Diff (sec)
1 12/05/2020 11:24:54 79.46, -94.72 114.11 12/05/2020 11:24:12 79.46, -94.76 114.15 0.85 42
2 12/05/2020 12:14:14 -79.73, 74.82 66.26 12/05/2020 12:14:49 -79.73, 74.85 66.29 0.58 35
3 12/08/2020 03:41:20 79.62, 22.25 114.24 12/08/2020 03:41:00 79.63, 22.38 114.23 2.74 20
4 12/08/2020 04:30:44 -79.74,-169.25 65.92 12/08/2020 04:31:42 -79.73,-169.36 65.95 2.19 58
5 12/10/2020 19:08:47 -78.72, -35.18 64.29 12/10/2020 19:07:33 -78.78, -35.44 64.20 8.65 74
6 12/10/2020 19:57:49 79.65, 138.38 114.49 12/10/2020 19:57:52 79.66, 138.41 114.48 0.78 3
7 12/13/2020 11:24:57 -79.50, 85.54 65.06 12/13/2020 11:24:05 -79.51, 85.65 65.05 2.51 52
8 12/13/2020 12:14:18 79.68,-105.55 114.70 12/13/2020 12:14:44 79.68,-105.57 114.68 0.42 26
9 12/16/2020 03:41:24 -79.56,-158.16 64.95 12/16/2020 03:40:55 -79.57,-158.06 64.95 2.26 29
10 12/16/2020 04:30:44 79.77, 11.03 114.76 12/16/2020 04:31:33 79.77, 11.00 114.73 0.69 49
11 12/18/2020 19:57:51 -79.65, -41.64 64.94 12/18/2020 19:57:45 -79.66, -41.51 64.96 2.85 6



Historial Predications of SNOs between AURA and NPP
